Tillbaka till svenska Fidonet
English   Information   Debug  
FILM   0/18
FNEWS_PUBLISH   4983
FN_SYSOP   42232
FN_SYSOP_OLD1   71952
FTP_FIDO   0/2
FTSC_PUBLIC   0/13976
FUNNY   0/4886
GENEALOGY.EUR   0/71
GET_INFO   105
GOLDED   0/408
HAM   11054/16706
HOLYSMOKE   0/6791
HOT_SITES   0/1
HTMLEDIT   0/71
HUB203   466
HUB_100   264
HUB_400   39
HUMOR   0/29
IC   0/2851
INTERNET   0/424
INTERUSER   0/3
IP_CONNECT   719
JAMNNTPD   0/233
JAMTLAND   0/47
KATTY_KORNER   0/41
LAN   0/16
LINUX-USER   0/19
LINUXHELP   0/1155
LINUX   0/22371
LINUX_BBS   0/957
mail   18.68
mail_fore_ok   249
MENSA   0/341
MODERATOR   0/102
MONTE   0/992
MOSCOW_OKLAHOMA   0/1245
MUFFIN   0/783
MUSIC   0/321
N203_STAT   938
N203_SYSCHAT   313
NET203   321
NET204   69
NET_DEV   0/10
NORD.ADMIN   0/101
NORD.CHAT   0/2572
NORD.FIDONET   189
NORD.HARDWARE   0/28
NORD.KULTUR   0/114
NORD.PROG   0/32
NORD.SOFTWARE   0/88
NORD.TEKNIK   0/58
NORD   0/453
OCCULT_CHAT   0/93
OS2BBS   0/787
OS2DOSBBS   0/580
OS2HW   0/42
OS2INET   0/37
OS2LAN   0/134
OS2PROG   0/36
OS2REXX   0/113
OS2USER-L   207
OS2   0/4831
OSDEBATE   0/18996
PASCAL   0/490
PERL   0/457
PHP   0/45
POINTS   0/405
POLITICS   0/29554
POL_INC   0/14731
PSION   103
R20_ADMIN   1133
R20_AMATORRADIO   0/2
R20_BEST_OF_FIDONET   16
R20_CHAT   0/897
R20_DEPP   0/3
R20_DEV   400
R20_ECHO2   1886
R20_ECHOPRES   0/35
R20_ESTAT   0/719
R20_FIDONETPROG...
...RAM.MYPOINT
  0/2
R20_FIDONETPROGRAM   0/22
R20_FIDONET   0/248
R20_FILEFIND   0/24
R20_FILEFOUND   0/22
R20_HIFI   0/3
R20_INFO2   3778
R20_INTERNET   0/12940
R20_INTRESSE   0/60
R20_INTR_KOM   0/99
R20_KANDIDAT.CHAT   42
R20_KANDIDAT   28
R20_KOM_DEV   112
R20_KONTROLL   0/13360
R20_KORSET   0/18
R20_LOKALTRAFIK   0/24
R20_MODERATOR   0/1852
R20_NC   76
R20_NET200   245
R20_NETWORK.OTH...
...ERNETS
  0/13
R20_OPERATIVSYS...
...TEM.LINUX
  0/44
R20_PROGRAMVAROR   0/1
R20_REC2NEC   534
R20_SFOSM   0/341
R20_SF   0/108
R20_SPRAK.ENGLISH   0/1
R20_SQUISH   107
R20_TEST   2
R20_WORST_OF_FIDONET   20
RAR   0/9
RA_MULTI   106
RA_UTIL   0/162
REGCON.EUR   0/2069
REGCON   0/13
SCIENCE   0/1206
SF   0/239
SHAREWARE_SUPPORT   0/5146
SHAREWRE   0/14
SIMPSONS   0/169
STATS_OLD1   0/2539.065
STATS_OLD2   0/2530
STATS_OLD3   0/2395.095
STATS_OLD4   0/1692.25
SURVIVOR   0/495
SYSOPS_CORNER   0/3
SYSOP   0/84
TAGLINES   0/112
TEAMOS2   0/4530
TECH   0/2617
TEST.444   0/105
TRAPDOOR   0/19
TREK   0/755
TUB   0/290
UFO   0/40
UNIX   0/1316
USA_EURLINK   0/102
USR_MODEMS   0/1
VATICAN   0/2740
VIETNAM_VETS   0/14
VIRUS   0/378
VIRUS_INFO   0/201
VISUAL_BASIC   0/473
WHITEHOUSE   0/5187
WIN2000   0/101
WIN32   0/30
WIN95   0/4291
WIN95_OLD1   0/70272
WINDOWS   0/1517
WWB_SYSOP   0/419
WWB_TECH   0/810
ZCC-PUBLIC   0/1
ZEC   4

 
4DOS   0/134
ABORTION   0/7
ALASKA_CHAT   0/506
ALLFIX_FILE   0/1313
ALLFIX_FILE_OLD1   0/7997
ALT_DOS   0/152
AMATEUR_RADIO   0/1039
AMIGASALE   0/14
AMIGA   0/331
AMIGA_INT   0/1
AMIGA_PROG   0/20
AMIGA_SYSOP   0/26
ANIME   0/15
ARGUS   0/924
ASCII_ART   0/340
ASIAN_LINK   0/651
ASTRONOMY   0/417
AUDIO   0/92
AUTOMOBILE_RACING   0/105
BABYLON5   0/17862
BAG   135
BATPOWER   0/361
BBBS.ENGLISH   0/382
BBSLAW   0/109
BBS_ADS   0/5290
BBS_INTERNET   0/507
BIBLE   0/3563
BINKD   0/1119
BINKLEY   0/215
BLUEWAVE   0/2173
CABLE_MODEMS   0/25
CBM   0/46
CDRECORD   0/66
CDROM   0/20
CLASSIC_COMPUTER   0/378
COMICS   0/15
CONSPRCY   0/899
COOKING   41979
COOKING_OLD1   0/24719
COOKING_OLD2   0/40862
COOKING_OLD3   0/37489
COOKING_OLD4   0/35496
COOKING_OLD5   9370
C_ECHO   0/189
C_PLUSPLUS   0/31
DIRTY_DOZEN   0/201
DOORGAMES   0/2332
DOS_INTERNET   0/196
duplikat   6102
ECHOLIST   0/18295
EC_SUPPORT   0/318
ELECTRONICS   0/359
ELEKTRONIK.GER   1534
ENET.LINGUISTIC   0/13
ENET.POLITICS   0/4
ENET.SOFT   0/11701
ENET.SYSOP   34332
ENET.TALKS   0/32
ENGLISH_TUTOR   0/2000
EVOLUTION   0/1335
FDECHO   0/217
FDN_ANNOUNCE   0/7068
FIDONEWS   25122
FIDONEWS_OLD1   96/49742
FIDONEWS_OLD2   0/35949
FIDONEWS_OLD3   0/30874
FIDONEWS_OLD4   23367/37224
FIDO_SYSOP   12970
FIDO_UTIL   0/180
FILEFIND   0/209
FILEGATE   0/212
Möte HAM, 16706 texter
 lista första sista föregående nästa
Text 3812, 880 rader
Skriven 2010-07-22 22:30:22 av Amsat List (1:323/120.0)
Ärende: [keps]  orb10203.amsa
=============================
[keps]  orb10203.amsa

Return-Path: <keps-bounces@amsat.org>
X-Rcpt: craig.healy@chowda.com
X-UIDL: 1279850915.4340

SB KEPS @ AMSAT  $ORB10203.O
Orbital Elements  10203.OSCAR

HR AMSAT ORBITAL ELEMENTS FOR OSCAR SATELLITES
FROM WA5QGD FORT WORTH,TX July 22, 2010
Send Subscribe/unsubscribe to KEPS at http://www.amsat.org/mailman/listinfo/kep
BID: ORB10203.O
TO ALL RADIO AMATEURS BT

Satellite: AO-07
Catalog number: 07530
Epoch time:      10202.83857158
Element set:     833
Inclination:      101.3998 deg
RA of node:       217.3598 deg
Eccentricity:    0.0011628
Arg of perigee:   205.6732 deg
Mean anomaly:     154.3763 deg
Mean motion:   12.53579015 rev/day
Decay rate:       -2.7e-07 rev/day^2
Epoch rev:           63279
Checksum:              310

Satellite: FO-29
Catalog number: 24278
Epoch time:      10203.82357165
Element set:     359
Inclination:      098.5142 deg
RA of node:       028.0255 deg
Eccentricity:    0.0351254
Arg of perigee:   031.5259 deg
Mean anomaly:     330.6417 deg
Mean motion:   13.52951792 rev/day
Decay rate:        3.9e-07 rev/day^2
Epoch rev:           68792
Checksum:              313

Satellite: SO-33
Catalog number: 25509
Epoch time:      10202.50664022
Element set:     757
Inclination:      031.4352 deg
RA of node:       314.4468 deg
Eccentricity:    0.0354170
Arg of perigee:   230.0106 deg
Mean anomaly:     126.8853 deg
Mean motion:   14.28317219 rev/day
Decay rate:        7.3e-07 rev/day^2
Epoch rev:           61296
Checksum:              272

Satellite: RS-22
Catalog number: 27939
Epoch time:      10203.60973946
Element set:     385
Inclination:      097.8890 deg
RA of node:       067.5859 deg
Eccentricity:    0.0012716
Arg of perigee:   311.7365 deg
Mean anomaly:     048.2766 deg
Mean motion:   14.63435253 rev/day
Decay rate:       1.14e-06 rev/day^2
Epoch rev:           36413
Checksum:              326

Satellite: VO-52
Catalog number: 28650
Epoch time:      10202.91046188
Element set:    0559
Inclination:      097.6892 deg
RA of node:       254.9865 deg
Eccentricity:    0.0027356
Arg of perigee:   160.4070 deg
Mean anomaly:     199.8249 deg
Mean motion:   14.81775061 rev/day
Decay rate:       2.94e-06 rev/day^2
Epoch rev:           28183
Checksum:              339

Satellite: SO-67
Catalog number: 35870
Epoch time:      10203.71898626
Element set:     933
Inclination:      097.3292 deg
RA of node:       251.9109 deg
Eccentricity:    0.0002990
Arg of perigee:   007.7674 deg
Mean anomaly:     140.2814 deg
Mean motion:   15.20961812 rev/day
Decay rate:       4.99e-06 rev/day^2
Epoch rev:            4685
Checksum:              324

Satellite: HO-68
Catalog number: 36122
Epoch time:      10203.74393272
Element set:     509
Inclination:      100.4666 deg
RA of node:       263.8108 deg
Eccentricity:    0.0007128
Arg of perigee:   255.4030 deg
Mean anomaly:     104.6296 deg
Mean motion:   13.16281324 rev/day
Decay rate:       -4.5e-07 rev/day^2
Epoch rev:            2889
Checksum:              280

/EX
SB KEPS @ AMSAT  $ORB10203.D
Orbital Elements  10203.MICROS

HR AMSAT ORBITAL ELEMENTS FOR THE MICROSATS
FROM WA5QGD FORT WORTH,TX July 22, 2010
Send Subscribe/unsubscribe to KEPS at http://www.amsat.org/mailman/listinfo/kep
BID: ORB10203.D
TO ALL RADIO AMATEURS BT

Satellite: UO-11
Catalog number: 14781
Epoch time:      10202.84514274
Element set:    0295
Inclination:      098.0541 deg
RA of node:       254.6878 deg
Eccentricity:    0.0009951
Arg of perigee:   122.0698 deg
Mean anomaly:     238.1516 deg
Mean motion:   14.79817158 rev/day
Decay rate:        4.0e-07 rev/day^2
Epoch rev:           41693
Checksum:              313

Satellite: AO-16
Catalog number: 20439
Epoch time:      10202.49964081
Element set:    0952
Inclination:      098.3346 deg
RA of node:       159.0592 deg
Eccentricity:    0.0011937
Arg of perigee:   066.0726 deg
Mean anomaly:     294.1703 deg
Mean motion:   14.31867462 rev/day
Decay rate:        2.1e-07 rev/day^2
Epoch rev:           07029
Checksum:              299

Satellite: LO-19
Catalog number: 20442
Epoch time:      10202.77132708
Element set:     860
Inclination:      098.2959 deg
RA of node:       164.9822 deg
Eccentricity:    0.0012888
Arg of perigee:   060.5288 deg
Mean anomaly:     299.7181 deg
Mean motion:   14.32098472 rev/day
Decay rate:        9.7e-07 rev/day^2
Epoch rev:            7050
Checksum:              322

Satellite: AO-27
Catalog number: 22825
Epoch time:      10202.66527062
Element set:    0585
Inclination:      098.4860 deg
RA of node:       149.7268 deg
Eccentricity:    0.0008493
Arg of perigee:   161.7969 deg
Mean anomaly:     198.3503 deg
Mean motion:   14.29302114 rev/day
Decay rate:       -5.9e-07 rev/day^2
Epoch rev:           87697
Checksum:              339

Satellite: IO-26
Catalog number: 22826
Epoch time:      10202.58457545
Element set:    0322
Inclination:      098.4809 deg
RA of node:       150.2365 deg
Eccentricity:    0.0009158
Arg of perigee:   157.3996 deg
Mean anomaly:     202.7593 deg
Mean motion:   14.29558908 rev/day
Decay rate:       -2.0e-08 rev/day^2
Epoch rev:           87707
Checksum:              329

Satellite: GO-32
Catalog number: 25397
Epoch time:      10203.67542671
Element set:     240
Inclination:      098.3130 deg
RA of node:       209.1721 deg
Eccentricity:    0.0001833
Arg of perigee:   125.8997 deg
Mean anomaly:     234.2346 deg
Mean motion:   14.23181263 rev/day
Decay rate:       -2.6e-07 rev/day^2
Epoch rev:           62509
Checksum:              280

